Hourly Data Report for June 15, 2020

TRENTON A
ONTARIO
Current Station Operator: DND

44°07'00.000" N
77°32'00.000" W
86.30 m
6158875
71621
YTR

Download Data

Hourly Data (June 2020)
Hourly Data Report for June 15, 2020
TIME
LST
Temp Definition
°C
Dew Point Definition
°C
Rel Hum Definition
%
Precip. Amount Definition
mm

Wind Dir Definition
10's deg

Wind Spd Definition
km/h
Visibility Definition
km
Stn Press Definition
kPa
Hmdx Definition


Wind Chill Definition


Weather Definition


00:00 8.8 6.3 84   3 5 24.1 102.03     Clear
01:00 7.9 6.7 92   4 4 24.1 102.03     Clear
02:00 7.8 6.4 91     0 24.1 102.04     Clear
03:00 7.5 5.7 88     0 24.1 102.05     Clear
04:00 7.2 6.0 92     0 24.1 102.06     Mainly Clear
05:00 6.6 6.0 96     0 24.1 102.11     Mainly Clear
06:00 10.8 6.8 76     0 24.1 102.15     Mainly Clear
07:00 13.5 7.6 68   3 4 24.1 102.17     Mainly Clear
08:00 17.1 5.3 46   6 8 24.1 102.21     Clear
09:00 19.3 4.9 39   6 4 24.1 102.20     Clear
10:00 19.8 4.1 36   12 13 24.1 102.16     Clear
11:00 20.9 3.1 31   12 17 24.1 102.14     Clear
12:00 21.2 3.9 32   10 9 24.1 102.09     Clear
13:00 22.2 4.1 31   11 11 24.1 102.05     Mainly Clear
14:00 20.4 6.0 39   24 17 24.1 102.02     Mainly Clear
15:00 20.8 5.1 36   21 13 24.1 102.00     Mainly Clear
16:00 20.9 4.6 34   23 11 24.1 101.95     Mainly Clear
17:00 20.8 4.8 35   22 13 24.1 101.92     Mainly Clear
18:00 20.3 4.9 36   22 11 24.1 101.91     Mostly Cloudy
19:00 19.6 3.9 35   23 11 24.1 101.88     Mainly Clear
20:00 16.7 3.9 43     0 24.1 101.91     Mainly Clear
21:00 13.9 6.8 62     0 24.1 101.91     Mainly Clear
22:00 12.2 7.8 74     0 24.1 101.92     Mainly Clear
23:00 11.2 7.1 76   36 4 24.1 101.94     Clear

Notes on Data Quality.

Legend

  • E = Estimated
  • M = Missing
  • NA = Not Available*
  • [empty] = Indicates an unobserved value
Date modified: